Showing default

OSCAR 23 (KITSAT 1), 22077

Orbit data source: Space-Track

OSCAR 23 (KITSAT 1), 22077 is a payload satellite owned by KAIST (KR) in LEO that was launched on Mon, 10 Aug 1992 UTC via an ARIANE 42P launch vehicle from the French Guiana (FRGUI). Payload-class satellites include a variety of spacecraft equipped with specific instruments for various scientific and technological missions. These include communications satellites like Starlink; space stations such as the ISS; scientific satellites like the Hubble; Earth observation satellites from companies like Planet Labs, Umbra, and HawkEye 360; GPS; miniature CubeSats for education and research; and military/defense satellites.

Loading next visibility...
Identifier
22077, 1992-052B
Orbit
LEO
Country
Flag of UnknownUnknown / SKOR
Related business
Manufacturer
SSTL
Mission
Non-operational Civil Communications
Bus & Motor
UOSAT, Unknown motor
Mass
48 kg wet, 48 kg dry
Launch date (UTC)
1992-08-10 (33 years ago)
Launch vehicle
ARIANE 42P
Launch site
French Guiana (FRGUI)
Object type
Payload
Rocket body
Debris
Shape & HBR
Hex Poly, 0.3 m
Radar Cross Section
0.353 m², Medium (>0.1 m² and < 1m²)

Expand to show TLE details & history
Last TLE update: 11 hours ago

TLE from 11 hours ago
0 OSCAR 23 (KITSAT 1)
1 22077U 92052B   25354.63141343 -.00000049  00000-0  52386-4 0  9992
2 22077  66.0862 295.1786 0009198 325.2823 208.5764 12.86605998566719
Epoch: 2025-12-20T15:09Z
TLE epoch observation values (Epoch: 2025-12-20T15:09:14.120Z)
Latitude
5.59707°
Longitude
155.93616°
Altitude
1,322.608 km
Speed
7.194 km/s
True Right ascension
07h 30m 48s
True Declination
5° 33' 58"
Sunlit
Object was in full shadow at epoch
Visualization orbit readout
Latitude
Unknown
Longitude
Unknown
Altitude
Unknown
Speed
Unknown
Apparent Right ascension
Unknown
Apparent Declination
Unknown
Sunlit
N/A
Visualization observer readout
Local Sidereal Time
00:39:11
Azimuth
Unknown
Elevation
Unknown
Doppler factor
Unknown
Orbital elements
Apogee altitude
1,320.652 km
Perigee altitude
1,306.502 km
Semi-major axis
7,691.714 km
Eccentricity
0.00092
Inclination
66.0862°
RAAN
295.1786°
Arg. of periapsis
325.2823°
True anomaly
208.52603°
Mean anomaly
208.5764°
Eccentric anomaly
208.55121°
Mean motion
3.21743 °/min
Orbital period
111.89 mins
BSTAR
0.000052386
Loading maneuver chart data...
Computing Atmospheric mass density...
Loading historical data...
Loading historical data...
Loading historical data...
Loading historical data...
Loading historical data...
Loading historical data...
Loading historical data...

Documentation

Showing up to 5 results
|